Location: Mentone
(34.5413°N, 85.5351°W)
Time: 22:52:58
(UTC-05:00)

AO-Echo - Pass Details

Date: 29 August 2017
Orbit: 694 x 811 km, 98.4° (Epoch: 25 September)

Event Time Altitude Azimuth Distance (km) Brightness Sun altitude
Rises 02:43:57 0° 0° (N) 3,131 ? -37.7°
Reaches altitude 10° 02:46:23 10° 351° (N) 2,223 ? -37.4°
Enters shadow 02:46:46 12° 348° (NNW) 2,092 ? -37.3°
